Simultaneous Nadir Overpasses (SNOs) Predictions

Prediction of SNOs between AQUA and GOES-15 Satellite Orbit:

Table of predicted SNOs for the next 14.0 days since TLE Epoch: 1/31/2014
Index Date Time (AQUA) AQUA Lat,Lon GOES-15 Lat,Lon Distance(km) Time Diff (sec)
1 01/31/2014 22:47:46 -0.42,-137.90 0.11,-135.38 287.14 80
2 02/02/2014 22:35:34 0.19,-134.94 0.11,-135.40 52.13 80
3 02/04/2014 22:23:22 0.82,-131.97 0.11,-135.42 391.14 80
4 02/05/2014 10:44:38 0.23,-137.14 -0.11,-135.40 196.90 80
5 02/07/2014 10:32:25 -0.38,-134.17 -0.10,-135.41 141.76 80
6 02/07/2014 22:53:49 -0.71,-139.36 0.10,-135.43 445.76 80
7 02/09/2014 10:20:12 -1.01,-131.20 -0.10,-135.42 480.07 80
8 02/09/2014 22:41:35 -0.13,-136.38 0.10,-135.44 107.49 80
9 02/11/2014 22:29:22 0.53,-133.42 0.09,-135.44 230.59 80
10 02/12/2014 10:50:37 0.56,-138.57 -0.09,-135.43 357.25 80




NCC Satellite Simultaneous Nadir Overpasses (SNOs) Prediction Service
